QPF
0.00 0.00 0.00 0.00 0.00 0.00 0.00 0.00 0.00 0.00 0.00 0.00 0.00 0.00 0.00 0.00 0.00 0.00 0.00 0.00 0.00 0.00 0.00 0.00 0.00 0.00 0.01 0.01 0.01 0.01 0.02 0.02 0.02 0.02 0.02 0.02 0.02 0.02
0.00 0.00 0.00 0.00 0.00 0.00 0.00 0.00 0.00 0.00 0.00 0.00 0.00 0.00 0.00 0.00 0.00 0.00 0.00 0.00 0.00 0.00 0.00 0.00 0.00 0.00 0.00 0.01 0.01 0.01 0.01 0.02 0.02 0.03 0.03 0.03 0.04 0.04
0.00 0.00 0.00 0.00 0.00 0.00 0.00 0.00 0.00 0.00 0.00 0.00 0.00 0.00 0.00 0.00 0.00 0.00 0.00 0.00 0.00 0.00 0.00 0.00 0.00 0.00 0.00 0.00 0.01 0.01 0.01 0.01 0.02 0.02 0.03 0.04 0.04 0.05
0.00 0.00 0.00 0.00 0.00 0.00 0.00 0.00 0.00 0.00 0.00 0.00 0.00 0.00 0.00 0.00 0.00 0.00 0.00 0.00 0.00 0.00 0.00 0.00 0.00 0.00 0.00 0.00 0.00 0.01 0.01 0.01 0.02 0.02 0.03 0.03 0.04 0.04
0.00 0.00 0.00 0.00 0.00 0.00 0.00 0.00 0.00 0.00 0.00 0.00 0.00 0.00 0.00 0.00 0.00 0.00 0.00 0.00 0.00 0.00 0.00 0.00 0.00 0.00 0.00 0.00 0.00 0.00 0.01 0.01 0.01 0.01 0.02 0.02 0.02 0.03
0.00 0.00 0.00 0.00 0.00 0.00 0.00 0.00 0.00 0.00 0.00 0.00 0.00 0.00 0.00 0.00 0.00 0.00 0.00 0.00 0.00 0.00 0.00 0.00 0.00 0.00 0.00 0.00 0.00 0.00 0.00 0.00 0.00 0.01 0.01 0.01 0.02 0.02
0.00 0.00 0.00 0.00 0.00 0.00 0.00 0.00 0.00 0.00 0.00 0.01 0.01 0.01 0.01 0.00 0.00 0.00 0.00 0.00 0.00 0.00 0.00 0.00 0.00 0.00 0.00 0.00 0.00 0.00 0.00 0.00 0.00 0.01 0.01 0.02 0.02 0.02
0.00 0.00 0.00 0.00 0.00 0.00 0.00 0.00 0.00 0.01 0.01 0.02 0.02 0.01 0.00 0.00 0.00 0.00 0.00 0.01 0.01 0.00 0.00 0.00 0.00 0.00 0.00 0.00 0.00 0.00 0.00 0.00 0.00 0.01 0.01 0.01 0.02 0.02
0.00 0.00 0.00 0.00 0.00 0.00 0.00 0.00 0.00 0.01 0.02 0.02 0.01 0.00 0.00 0.00 0.00 0.01 0.01 0.01 0.01 0.00 0.00 0.00 0.00 0.00 0.00 0.00 0.00 0.00 0.00 0.00 0.00 0.00 0.01 0.01 0.01 0.02
0.00 0.00 0.00 0.00 0.00 0.00 0.00 0.01 0.01 0.00 0.00 0.00 0.00 0.00 0.00 0.00 0.01 0.02 0.02 0.01 0.00 0.00 0.00 0.00 0.00 0.00 0.00 0.00 0.00 0.00 0.00 0.00 0.00 0.00 0.01 0.01 0.02 0.02
0.00 0.00 0.00 0.00 0.00 0.00 0.01 0.01 0.01 0.00 0.00 0.00 0.00 0.00 0.00 0.00 0.00 0.00 0.00 0.01 0.01 0.00 0.00 0.00 0.00 0.00 0.00 0.00 0.00 0.00 0.00 0.00 0.00 0.00 0.00 0.01 0.02 0.03
0.00 0.00 0.00 0.00 0.00 0.01 0.01 0.01 0.00 0.00 0.00 0.00 0.00 0.00 0.00 0.00 0.00 0.00 0.01 0.04 0.04 0.02 0.00 0.00 0.01 0.01 0.02 0.00 0.00 0.00 0.00 0.00 0.00 0.00 0.00 0.00 0.01 0.03
0.00 0.00 0.00 0.00 0.00 0.01 0.01 0.00 0.00 0.00 0.00 0.00 0.00 0.00 0.00 0.00 0.00 0.00 0.00 0.04 0.07 0.04 0.00 0.02 0.05 0.02 0.04 0.01 0.00 0.00 0.00 0.00 0.00 0.00 0.00 0.00 0.01 0.03
0.00 0.00 0.00 0.00 0.01 0.01 0.00 0.00 0.00 0.00 0.00 0.00 0.00 0.00 0.00 0.00 0.00 0.00 0.00 0.00 0.02 0.02 0.01 0.04 0.09 0.05 0.05 0.03 0.00 0.00 0.00 0.00 0.00 0.00 0.00 0.00 0.01 0.02
0.00 0.00 0.00 0.00 0.00 0.00 0.00 0.00 0.00 0.00 0.00 0.00 0.00 0.00 0.00 0.00 0.00 0.00 0.00 0.00 0.00 0.00 0.00 0.01 0.04 0.06 0.07 0.06 0.02 0.01 0.00 0.00 0.00 0.00 0.00 0.01 0.01 0.02
0.00 0.00 0.00 0.00 0.00 0.00 0.00 0.00 0.00 0.00 0.00 0.00 0.00 0.00 0.00 0.00 0.00 0.00 0.00 0.01 0.01 0.00 0.00 0.00 0.01 0.04 0.07 0.04 0.03 0.02 0.00 0.00 0.00 0.00 0.01 0.01 0.00 0.02
0.00 0.00 0.00 0.00 0.00 0.00 0.00 0.00 0.00 0.00 0.00 0.00 0.00 0.01 0.00 0.00 0.00 0.00 0.01 0.01 0.02 0.01 0.00 0.00 0.00 0.01 0.02 0.03 0.02 0.01 0.00 0.00 0.00 0.01 0.03 0.03 0.00 0.01
0.00 0.00 0.00 0.00 0.00 0.00 0.00 0.00 0.00 0.00 0.00 0.01 0.01 0.01 0.01 0.01 0.01 0.00 0.00 0.01 0.01 0.01 0.00 0.00 0.01 0.01 0.01 0.00 0.00 0.00 0.01 0.00 0.00 0.01 0.03 0.06 0.03 0.01
0.00 0.00 0.00 0.00 0.00 0.00 0.00 0.00 0.00 0.00 0.00 0.01 0.02 0.02 0.02 0.02 0.01 0.01 0.01 0.01 0.01 0.01 0.00 0.00 0.02 0.06 0.06 0.02 0.00 0.00 0.01 0.02 0.02 0.01 0.01 0.05 0.06 0.04
0.00 0.00 0.00 0.00 0.00 0.00 0.00 0.00 0.00 0.00 0.00 0.01 0.01 0.02 0.03 0.03 0.02 0.01 0.01 0.02 0.03 0.02 0.01 0.00 0.02 0.07 0.11 0.08 0.03 0.00 0.00 0.03 0.08 0.06 0.02 0.01 0.01 0.01
0.00 0.00 0.00 0.00 0.00 0.00 0.00 0.01 0.01 0.01 0.01 0.02 0.02 0.02 0.03 0.04 0.03 0.02 0.02 0.01 0.02 0.03 0.03 0.02 0.01 0.02 0.03 0.04 0.03 0.00 0.00 0.01 0.05 0.11 0.12 0.09 0.05 0.02
0.00 0.00 0.00 0.00 0.00 0.00 0.01 0.01 0.01 0.01 0.01 0.02 0.02 0.03 0.03 0.05 0.04 0.03 0.02 0.02 0.03 0.04 0.04 0.02 0.00 0.00 0.01 0.03 0.03 0.01 0.00 0.00 0.00 0.02 0.08 0.17 0.22 0.22
0.00 0.00 0.00 0.00 0.00 0.01 0.01 0.01 0.01 0.01 0.02 0.03 0.03 0.03 0.04 0.04 0.03 0.02 0.03 0.04 0.05 0.04 0.03 0.01 0.00 0.00 0.00 0.01 0.03 0.02 0.01 0.00 0.00 0.00 0.01 0.04 0.09 0.14
MSLP
1019.65 1020.00 1020.35 1020.65 1020.89 1021.00 1020.98 1020.82 1020.52 1020.12 1019.64 1019.14 1018.64 1018.17 1017.74 1017.37 1017.02 1016.70 1016.37 1016.03 1015.67 1015.27 1014.84 1014.38 1013.91 1013.43 1012.96 1012.49 1012.04 1011.62 1011.22 1010.85 1010.51 1010.18 1009.88 1009.57 1009.27 1008.95
1019.51 1019.83 1020.16 1020.46 1020.70 1020.84 1020.85 1020.73 1020.47 1020.10 1019.65 1019.16 1018.64 1018.14 1017.67 1017.23 1016.80 1016.40 1015.99 1015.57 1015.14 1014.68 1014.20 1013.70 1013.20 1012.69 1012.19 1011.70 1011.23 1010.79 1010.37 1009.99 1009.64 1009.31 1009.00 1008.70 1008.40 1008.10
1019.32 1019.58 1019.87 1020.15 1020.38 1020.53 1020.57 1020.49 1020.29 1019.98 1019.57 1019.11 1018.62 1018.11 1017.60 1017.11 1016.62 1016.14 1015.65 1015.15 1014.63 1014.10 1013.56 1013.02 1012.47 1011.92 1011.39 1010.86 1010.36 1009.89 1009.44 1009.03 1008.65 1008.31 1007.99 1007.69 1007.40 1007.11
1019.12 1019.32 1019.55 1019.79 1020.00 1020.14 1020.20 1020.16 1020.01 1019.75 1019.41 1018.99 1018.53 1018.03 1017.51 1016.98 1016.43 1015.87 1015.31 1014.72 1014.13 1013.53 1012.93 1012.33 1011.73 1011.14 1010.56 1010.00 1009.46 1008.94 1008.46 1008.01 1007.60 1007.23 1006.89 1006.58 1006.28 1006.00
1018.95 1019.08 1019.25 1019.43 1019.60 1019.73 1019.80 1019.78 1019.66 1019.45 1019.16 1018.79 1018.35 1017.86 1017.33 1016.77 1016.18 1015.56 1014.93 1014.27 1013.61 1012.95 1012.28 1011.62 1010.98 1010.34 1009.72 1009.12 1008.54 1007.98 1007.45 1006.96 1006.51 1006.10 1005.73 1005.40 1005.10 1004.82
1018.84 1018.91 1019.01 1019.13 1019.25 1019.34 1019.39 1019.37 1019.26 1019.08 1018.81 1018.47 1018.05 1017.57 1017.04 1016.45 1015.83 1015.16 1014.47 1013.77 1013.05 1012.33 1011.62 1010.92 1010.23 1009.55 1008.89 1008.25 1007.62 1007.02 1006.45 1005.91 1005.41 1004.96 1004.56 1004.20 1003.88 1003.59
1018.80 1018.81 1018.85 1018.90 1018.96 1019.00 1019.00 1018.94 1018.82 1018.63 1018.36 1018.02 1017.61 1017.13 1016.59 1015.99 1015.34 1014.65 1013.93 1013.19 1012.44 1011.68 1010.94 1010.20 1009.48 1008.77 1008.08 1007.40 1006.73 1006.08 1005.46 1004.87 1004.32 1003.83 1003.39 1002.99 1002.65 1002.35
1018.82 1018.78 1018.76 1018.74 1018.72 1018.69 1018.62 1018.51 1018.34 1018.11 1017.82 1017.46 1017.03 1016.54 1015.99 1015.38 1014.73 1014.03 1013.30 1012.55 1011.79 1011.03 1010.27 1009.51 1008.77 1008.03 1007.30 1006.58 1005.87 1005.17 1004.50 1003.86 1003.27 1002.73 1002.24 1001.81 1001.43 1001.10
1018.86 1018.77 1018.69 1018.61 1018.51 1018.39 1018.24 1018.05 1017.81 1017.52 1017.18 1016.78 1016.33 1015.83 1015.27 1014.67 1014.02 1013.34 1012.62 1011.89 1011.14 1010.39 1009.63 1008.87 1008.11 1007.35 1006.58 1005.82 1005.06 1004.31 1003.59 1002.90 1002.25 1001.66 1001.13 1000.66 1000.24 999.86
1018.86 1018.74 1018.60 1018.45 1018.28 1018.07 1017.83 1017.56 1017.24 1016.88 1016.48 1016.04 1015.56 1015.05 1014.50 1013.91 1013.28 1012.63 1011.95 1011.25 1010.53 1009.80 1009.05 1008.29 1007.51 1006.73 1005.92 1005.12 1004.31 1003.51 1002.73 1001.99 1001.29 1000.65 1000.06 999.54 999.07 998.64
1018.78 1018.63 1018.45 1018.24 1017.99 1017.71 1017.39 1017.03 1016.64 1016.21 1015.76 1015.28 1014.79 1014.27 1013.73 1013.16 1012.58 1011.96 1011.33 1010.67 1009.98 1009.27 1008.54 1007.77 1006.98 1006.16 1005.32 1004.47 1003.60 1002.75 1001.91 1001.12 1000.37 999.67 999.03 998.45 997.92 997.44
1018.61 1018.43 1018.21 1017.95 1017.65 1017.30 1016.92 1016.49 1016.04 1015.57 1015.08 1014.58 1014.07 1013.55 1013.03 1012.49 1011.94 1011.37 1010.77 1010.15 1009.49 1008.80 1008.07 1007.30 1006.48 1005.63 1004.75 1003.84 1002.92 1002.02 1001.13 1000.28 999.48 998.73 998.04 997.39 996.80 996.24
1018.34 1018.13 1017.88 1017.59 1017.25 1016.87 1016.44 1015.98 1015.49 1014.99 1014.48 1013.97 1013.46 1012.95 1012.44 1011.93 1011.40 1010.86 1010.29 1009.68 1009.04 1008.35 1007.60 1006.81 1005.96 1005.08 1004.15 1003.19 1002.23 1001.27 1000.34 999.45 998.60 997.80 997.05 996.34 995.67 995.03
1018.02 1017.79 1017.52 1017.21 1016.85 1016.45 1016.00 1015.53 1015.03 1014.52 1014.01 1013.50 1012.99 1012.49 1011.99 1011.48 1010.96 1010.41 1009.84 1009.22 1008.56 1007.85 1007.08 1006.25 1005.37 1004.44 1003.47 1002.48 1001.48 1000.48 999.52 998.59 997.70 996.85 996.04 995.27 994.52 993.80
1017.68 1017.44 1017.16 1016.85 1016.49 1016.09 1015.65 1015.18 1014.69 1014.19 1013.69 1013.18 1012.67 1012.16 1011.64 1011.12 1010.57 1009.99 1009.38 1008.72 1008.01 1007.25 1006.43 1005.56 1004.64 1003.67 1002.67 1001.65 1000.62 999.61 998.62 997.67 996.74 995.86 995.00 994.16 993.33 992.52
1017.39 1017.14 1016.87 1016.55 1016.21 1015.82 1015.40 1014.95 1014.48 1014.00 1013.49 1012.98 1012.46 1011.93 1011.37 1010.80 1010.19 1009.55 1008.87 1008.14 1007.36 1006.53 1005.65 1004.72 1003.75 1002.75 1001.73 1000.69 999.66 998.64 997.64 996.67 995.73 994.80 993.89 992.98 992.08 991.18
1017.17 1016.93 1016.66 1016.37 1016.04 1015.67 1015.27 1014.84 1014.39 1013.90 1013.40 1012.87 1012.32 1011.74 1011.13 1010.48 1009.79 1009.05 1008.28 1007.45 1006.58 1005.67 1004.72 1003.74 1002.73 1001.71 1000.67 999.64 998.61 997.59 996.59 995.61 994.64 993.68 992.72 991.75 990.77 989.79
1017.06 1016.82 1016.56 1016.28 1015.96 1015.61 1015.23 1014.81 1014.35 1013.87 1013.35 1012.79 1012.19 1011.55 1010.86 1010.12 1009.33 1008.49 1007.61 1006.68 1005.72 1004.72 1003.71 1002.68 1001.64 1000.60 999.56 998.53 997.51 996.50 995.50 994.51 993.51 992.51 991.50 990.48 989.43 988.39
1017.03 1016.80 1016.54 1016.26 1015.95 1015.60 1015.21 1014.79 1014.32 1013.82 1013.26 1012.66 1012.01 1011.29 1010.52 1009.69 1008.80 1007.86 1006.88 1005.86 1004.82 1003.76 1002.70 1001.63 1000.58 999.53 998.49 997.47 996.45 995.45 994.44 993.43 992.40 991.37 990.31 989.22 988.13 987.03
1017.04 1016.81 1016.55 1016.27 1015.94 1015.58 1015.17 1014.72 1014.23 1013.68 1013.09 1012.44 1011.72 1010.94 1010.09 1009.18 1008.22 1007.20 1006.15 1005.06 1003.97 1002.87 1001.77 1000.69 999.62 998.58 997.54 996.52 995.51 994.50 993.48 992.44 991.38 990.30 989.19 988.06 986.92 985.79
1017.07 1016.82 1016.55 1016.24 1015.88 1015.48 1015.04 1014.55 1014.01 1013.42 1012.78 1012.07 1011.30 1010.47 1009.57 1008.61 1007.60 1006.54 1005.44 1004.33 1003.21 1002.10 1001.00 999.92 998.86 997.82 996.79 995.77 994.75 993.72 992.67 991.60 990.50 989.38 988.23 987.06 985.90 984.77
1017.06 1016.79 1016.48 1016.13 1015.73 1015.28 1014.78 1014.23 1013.64 1013.00 1012.31 1011.57 1010.76 1009.89 1008.97 1007.99 1006.96 1005.90 1004.81 1003.71 1002.60 1001.51 1000.43 999.37 998.32 997.30 996.27 995.25 994.21 993.16 992.08 990.97 989.83 988.66 987.48 986.30 985.14 984.01
1017.01 1016.70 1016.33 1015.92 1015.46 1014.94 1014.38 1013.77 1013.13 1012.43 1011.70 1010.92 1010.10 1009.22 1008.30 1007.34 1006.34 1005.31 1004.26 1003.21 1002.15 1001.10 1000.06 999.04 998.02 997.01 995.99 994.95 993.90 992.82 991.70 990.56 989.38 988.19 986.99 985.81 984.66 983.58
Thickness
5515 5510 5504 5499 5493 5487 5481 5474 5466 5466 5471 5470 5465 5462 5455 5451 5446 5441 5437 5431 5427 5423 5418 5413 5407 5402 5396 5391 5385 5379 5373 5369 5366 5364 5363 5363 5365 5368
5506 5499 5493 5487 5481 5474 5468 5461 5454 5448 5449 5451 5444 5439 5436 5431 5426 5421 5416 5410 5404 5397 5390 5384 5377 5371 5365 5359 5354 5349 5345 5343 5342 5342 5344 5345 5347 5350
5496 5490 5483 5476 5469 5462 5455 5447 5440 5434 5433 5436 5427 5422 5416 5411 5407 5400 5394 5387 5380 5371 5363 5355 5348 5342 5338 5335 5333 5332 5331 5332 5333 5334 5335 5337 5338 5340
5485 5478 5471 5465 5457 5449 5441 5434 5427 5420 5416 5418 5414 5406 5399 5392 5388 5381 5373 5364 5354 5345 5337 5331 5325 5322 5321 5321 5322 5323 5325 5327 5328 5329 5330 5331 5332 5333
5474 5467 5460 5452 5443 5435 5427 5419 5412 5406 5399 5396 5395 5387 5380 5370 5366 5360 5350 5339 5329 5321 5316 5312 5310 5310 5311 5313 5315 5317 5320 5322 5324 5325 5325 5326 5327 5327
5462 5455 5448 5439 5431 5422 5414 5405 5398 5391 5383 5377 5374 5369 5360 5351 5341 5335 5331 5319 5310 5303 5301 5301 5302 5304 5304 5305 5308 5311 5314 5316 5318 5320 5321 5322 5322 5322
5449 5442 5435 5427 5419 5410 5403 5394 5386 5377 5369 5361 5356 5350 5341 5330 5319 5311 5307 5305 5300 5292 5296 5296 5295 5297 5298 5299 5301 5305 5309 5312 5315 5316 5317 5318 5319 5319
5436 5429 5422 5414 5406 5400 5391 5381 5371 5361 5351 5343 5337 5327 5319 5307 5299 5293 5289 5290 5295 5288 5286 5291 5288 5292 5293 5295 5298 5302 5306 5308 5311 5313 5314 5315 5316 5316
5423 5416 5410 5402 5394 5385 5378 5368 5355 5341 5331 5323 5316 5306 5298 5291 5286 5283 5279 5279 5283 5280 5275 5284 5286 5288 5289 5289 5291 5296 5301 5304 5306 5309 5312 5314 5315 5315
5411 5404 5396 5389 5381 5374 5367 5355 5340 5327 5316 5305 5297 5291 5284 5280 5277 5276 5275 5275 5277 5272 5265 5272 5279 5282 5285 5284 5284 5289 5294 5299 5303 5306 5309 5311 5313 5315
5398 5390 5382 5375 5368 5361 5352 5339 5327 5313 5300 5290 5283 5279 5276 5273 5270 5269 5265 5263 5268 5271 5261 5260 5268 5273 5280 5280 5281 5284 5289 5292 5296 5300 5305 5309 5312 5314
5385 5376 5368 5361 5353 5343 5333 5323 5314 5302 5292 5283 5276 5272 5269 5266 5262 5258 5254 5251 5254 5259 5257 5253 5255 5254 5272 5281 5277 5277 5282 5287 5293 5298 5303 5306 5308 5309
5373 5363 5354 5347 5338 5328 5318 5307 5298 5292 5286 5278 5274 5270 5266 5262 5257 5252 5246 5240 5240 5244 5246 5242 5245 5245 5248 5266 5276 5275 5279 5286 5292 5297 5301 5304 5306 5306
5359 5349 5341 5333 5323 5313 5303 5294 5288 5283 5277 5272 5269 5266 5262 5257 5253 5248 5243 5238 5234 5235 5238 5235 5237 5240 5244 5253 5266 5276 5279 5284 5290 5296 5300 5303 5305 5306
5344 5335 5326 5317 5308 5298 5289 5284 5279 5273 5269 5266 5263 5260 5256 5251 5248 5245 5242 5239 5237 5234 5234 5234 5234 5237 5240 5248 5259 5270 5279 5287 5291 5296 5299 5302 5305 5306
5328 5318 5310 5301 5292 5285 5279 5273 5269 5266 5264 5261 5258 5255 5251 5247 5242 5239 5238 5236 5237 5240 5238 5235 5235 5237 5242 5249 5257 5269 5278 5285 5294 5296 5300 5305 5307 5308
5316 5306 5295 5285 5277 5272 5269 5267 5265 5263 5259 5255 5251 5248 5244 5241 5237 5234 5232 5231 5231 5236 5242 5243 5242 5243 5247 5251 5262 5274 5283 5289 5294 5297 5300 5306 5312 5313
5300 5288 5278 5270 5266 5265 5264 5263 5261 5258 5255 5250 5246 5241 5237 5234 5233 5231 5229 5228 5230 5234 5238 5243 5247 5253 5260 5267 5271 5279 5286 5291 5296 5298 5301 5306 5316 5320
5279 5271 5264 5261 5260 5260 5260 5259 5258 5256 5251 5247 5242 5238 5234 5231 5229 5229 5229 5229 5231 5234 5239 5244 5249 5255 5266 5277 5284 5286 5288 5294 5298 5303 5306 5308 5314 5321
5263 5259 5256 5256 5257 5257 5258 5257 5256 5254 5250 5245 5240 5236 5232 5229 5229 5229 5229 5230 5233 5239 5245 5251 5255 5260 5266 5275 5286 5294 5295 5297 5301 5306 5311 5314 5318 5323
5253 5252 5252 5254 5255 5256 5256 5255 5254 5252 5249 5244 5240 5236 5233 5231 5230 5231 5232 5235 5239 5244 5251 5258 5263 5267 5271 5278 5286 5297 5302 5304 5304 5307 5312 5317 5323 5327
5248 5249 5251 5253 5254 5255 5255 5254 5253 5252 5249 5245 5242 5239 5236 5234 5234 5235 5238 5241 5246 5252 5258 5265 5270 5274 5277 5281 5288 5296 5304 5309 5312 5314 5315 5316 5319 5326
5245 5248 5251 5253 5254 5255 5255 5254 5253 5252 5250 5247 5245 5243 5242 5241 5241 5243 5246 5250 5256 5261 5265 5270 5275 5279 5282 5286 5290 5297 5303 5310 5315 5319 5324 5325 5325 5326